sat.trackr.live / text

‹ back to catalog

STARLINK-3085

NORAD 49156 · 2021-082AC

PAYLOAD ACTIVE UNKNOWN

§ Identity

Operator
Country
US
Launch date
2021-09-14
Launch site
AFWTR
Launch vehicle
Mass (kg)
RCS (m²)

Purposes: comms

External: N2YO · Heavens-Above · Gunter

§ Orbital elements

Epoch: 2026-09-20T00:20:29.498784Z

Period
96.11 min
Inclination
69.9977°
Eccentricity
0.0002666
Mean motion
14.98318487 rev/d
Perigee alt
570.2 km
Apogee alt
573.9 km
Semi-major
6,950.2 km
B*
2.4015e-5
RAAN
124.4860°
Arg perigee
269.0212°
Mean anomaly
91.0641°
Rev number
27,715

§ Raw data

STARLINK-30851 49156U 21082AC  26263.01423031  .00000193  00000+0  24015-4 0  99992 49156  69.9977 124.4860 0002666 269.0212  91.0641 14.98318487277157

JSON: /api/v1/satellites/49156 · /tle

For live sub-satellite position, see the globe view (requires WebGL).

§ Visibility from observer

Set your observer location to see the next 7 days of passes ≥ 10°. The values pass through the URL so the page stays shareable.

No JS? Fill the form by hand. The geolocation button needs JavaScript.